Weather History for Sheridan, WY

Change the Weather History Date:

Monday, January 16, 2012

  Actual Average Record
Temperature  
Mean Temperature 4 °F 24 °F  
Max Temperature 20 °F 36 °F 64 °F (1974)
Min Temperature -12 °F 12 °F -35 °F (1930)
Degree Days  
Heating Degree Days 61 41  
Month to date heating degree days 553 665  
Since 1 July heating degree days 3390 3848  
Cooling Degree Days 0 0  
Month to date cooling degree days 0 0  
Year to date cooling degree days 0 0  
Moisture  
Dew Point 5 °F    
Average Humidity 83    
Maximum Humidity 92    
Minimum Humidity 73    
Precipitation  
Precipitation 0.11 in 0.02 in 0.26 in (1920)
Month to date precipitation 0.18 0.27  
Year to date precipitation 0.18 0.27  
Sea Level Pressure  
Sea Level Pressure 29.97 in    
Wind  
Wind Speed 7 mph (North)    
Max Wind Speed 14 mph    
Max Gust Speed 16 mph    
Visibility 4 miles    
Events Fog , Snow    
T = Trace of Precipitation, MM = Missing Value Source: NWS Daily Summary

Daily Weather History Graph

Daily Weather History Graph

Search for Another Location

Airport:

Trip Planner

Search our weather history database for the weather conditions in past years. The results will help you decide how hot, cold, wet, or windy it might be!

Date:

Astronomy

Jan. 16, 2012 Rise Set
Actual Time 7:41 AM MST 4:54 PM MST
Civil Twilight 7:08 AM MST 5:26 PM MST
Nautical Twilight 6:32 AM MST 6:02 PM MST
Astronomical Twilight 5:57 AM MST 6:37 PM MST
Moon 12:48 AM MST (1/16) 11:13 AM MST (1/16)
Length of Visible Light 10h 17m
Length of Day
9h 12m
Last Quarter, 45% of the Moon is Illuminated
Jan 16
Last Quarter
Jan 23
New
Jan 30
First Quarter
Feb 7
Full
Feb 14
Last Quarter

Hourly Weather History & Observations

Time (MST) Temp. Windchill Dew Point Humidity Pressure Visibility Wind Dir Wind Speed Gust Speed Precip Events Conditions
12:49 AM 19.4 °F 9.5 °F 14.0 °F 80% 29.84 in 6.0 mi NE 8.1 mph - 0.00 in Snow Light Snow
12:53 AM 19.0 °F 10.0 °F 14.0 °F 81% 29.96 in 5.0 mi NNE 6.9 mph - 0.00 in Snow Light Snow
1:25 AM 19.4 °F 10.4 °F 14.0 °F 80% 29.83 in 5.0 mi NE 6.9 mph - 0.00 in Snow Light Snow
1:53 AM 19.0 °F 11.1 °F 15.1 °F 85% 29.95 in 4.0 mi NE 5.8 mph - 0.00 in Snow Light Snow
2:12 AM 17.6 °F 8.2 °F 14.0 °F 86% 29.82 in 3.0 mi NNE 6.9 mph - 0.00 in Snow Light Snow
2:19 AM 17.6 °F 8.2 °F 14.0 °F 86% 29.83 in 3.0 mi NNE 6.9 mph - 0.00 in Snow Light Snow
2:37 AM 17.6 °F 8.2 °F 14.0 °F 86% 29.83 in 2.5 mi NNE 6.9 mph - 0.00 in Snow Light Snow
2:53 AM 18.0 °F 6.1 °F 12.9 °F 81% 29.96 in 3.0 mi NE 10.4 mph - 0.00 in Snow Light Snow
3:26 AM 15.8 °F 4.2 °F 12.2 °F 86% 29.83 in 4.0 mi NNE 9.2 mph - 0.00 in Snow Light Snow
3:53 AM 16.0 °F 4.4 °F 10.9 °F 81% 29.97 in 4.0 mi NNE 9.2 mph - 0.00 in Snow Light Snow
4:16 AM 15.8 °F 3.4 °F 10.4 °F 79% 29.83 in 2.5 mi NNE 10.4 mph - 0.00 in Snow Light Snow
4:53 AM 15.1 °F 6.4 °F 10.0 °F 80% 29.97 in 2.5 mi NE 5.8 mph - 0.00 in Snow Light Snow
5:05 AM 15.8 °F 8.6 °F 10.4 °F 79% 29.83 in 3.0 mi NNE 4.6 mph - 0.00 in Snow Light Snow
5:26 AM 15.8 °F 8.6 °F 10.4 °F 79% 29.83 in 2.0 mi NNE 4.6 mph - 0.00 in Snow Light Snow
5:53 AM 14.0 °F 2.9 °F 10.0 °F 84% 29.99 in 2.0 mi North 8.1 mph - 0.01 in Snow Light Snow
6:20 AM 12.2 °F 2.9 °F 8.6 °F 85% 29.83 in 3.0 mi North 5.8 mph - 0.00 in Snow Light Snow
6:31 AM 12.2 °F 2.9 °F 8.6 °F 85% 29.83 in 3.0 mi NNE 5.8 mph - 0.00 in Snow Light Snow
6:53 AM 12.9 °F 5.2 °F 10.0 °F 88% 30.00 in 5.0 mi North 4.6 mph - 0.00 in Snow Light Snow
7:16 AM 12.2 °F 2.9 °F 8.6 °F 85% 29.84 in 3.0 mi NNW 5.8 mph - 0.00 in Snow Light Snow
7:21 AM 12.2 °F 2.9 °F 10.4 °F 92% 29.84 in 1.8 mi North 5.8 mph - 0.00 in Snow Light Snow
7:40 AM 12.2 °F -0.2 °F 8.6 °F 85% 29.84 in 1.2 mi North 9.2 mph - 0.01 in Snow Light Snow
7:53 AM 12.0 °F -0.4 °F 8.1 °F 84% 30.02 in 1.0 mi North 9.2 mph - 0.01 in Snow Light Snow
8:28 AM 10.4 °F -4.1 °F 6.8 °F 85% 29.88 in 0.8 mi North 11.5 mph - 0.02 in Snow Light Snow
8:40 AM 10.4 °F -3.3 °F 6.8 °F 85% 29.88 in 0.5 mi NNE 10.4 mph - 0.02 in Fog , Snow Snow
8:53 AM 10.0 °F -3.7 °F 6.1 °F 84% 30.07 in 0.5 mi North 10.4 mph - 0.03 in Fog , Snow Light Snow
9:02 AM 10.4 °F -3.3 °F 6.8 °F 85% 29.89 in 0.8 mi North 10.4 mph - 0.00 in Snow Light Snow
9:15 AM 8.6 °F -4.7 °F 5.0 °F 85% 29.90 in 1.0 mi North 9.2 mph - 0.00 in Snow Light Snow
9:29 AM 10.4 °F -1.5 °F 5.0 °F 79% 29.91 in 2.0 mi North 8.1 mph - 0.00 in Snow Light Snow
9:38 AM 10.4 °F -1.5 °F 5.0 °F 79% 29.91 in 4.0 mi North 8.1 mph - 0.00 in Snow Light Snow
9:53 AM 10.0 °F -2.9 °F 5.0 °F 80% 30.10 in 1.8 mi North 9.2 mph - 0.00 in Snow Light Snow
10:02 AM 8.6 °F -4.7 °F 5.0 °F 85% 29.92 in 0.5 mi North 9.2 mph - 0.01 in Fog , Snow Light Snow
10:11 AM 10.4 °F -2.4 °F 5.0 °F 79% 29.92 in 0.5 mi North 9.2 mph - N/A Snow Snow
10:33 AM 10.4 °F -0.4 °F 5.0 °F 79% 29.92 in 0.8 mi North 6.9 mph - 0.03 in Snow Light Snow
10:46 AM 10.4 °F 0.8 °F 5.0 °F 79% 29.92 in 1.0 mi North 5.8 mph - 0.03 in Snow Light Snow
10:53 AM 10.0 °F 0.4 °F 5.0 °F 80% 30.12 in 1.5 mi North 5.8 mph - 0.03 in Snow Light Snow
11:53 AM 10.9 °F -0.8 °F 5.0 °F 77% 30.09 in 1.2 mi North 8.1 mph - 0.01 in Snow Light Snow
12:15 PM 10.4 °F -1.5 °F 5.0 °F 79% 29.90 in 3.0 mi North 8.1 mph - 0.00 in Snow Light Snow
12:30 PM 10.4 °F -1.5 °F 3.2 °F 73% 29.91 in 2.5 mi North 8.1 mph - 0.01 in Snow Light Snow
12:44 PM 10.4 °F -2.4 °F 5.0 °F 79% 29.90 in 3.0 mi North 9.2 mph - 0.01 in Snow Light Snow
12:53 PM 10.9 °F 0.2 °F 5.0 °F 77% 30.09 in 8.0 mi North 6.9 mph - 0.01 in   Overcast
1:53 PM 10.9 °F 0.2 °F 3.9 °F 73% 30.10 in 10.0 mi North 6.9 mph - N/A   Overcast
2:08 PM 10.4 °F 0.8 °F 3.2 °F 73% 29.92 in 4.0 mi NW 5.8 mph - 0.00 in Snow Light Snow
2:16 PM 10.4 °F 2.2 °F 3.2 °F 73% 29.92 in 2.5 mi NNW 4.6 mph - 0.00 in Snow Light Snow
2:28 PM 10.4 °F -1.5 °F 5.0 °F 79% 29.93 in 1.2 mi NW 8.1 mph - 0.00 in Snow Light Snow
2:45 PM 10.4 °F -4.8 °F 3.2 °F 73% 29.93 in 0.8 mi NW 12.7 mph - 0.00 in Snow Light Snow
2:53 PM 9.0 °F -6.6 °F 3.9 °F 80% 30.14 in 0.8 mi NW 12.7 mph - 0.00 in Snow Light Snow
3:13 PM 8.6 °F -6.3 °F 3.2 °F 79% 29.95 in 1.5 mi WNW 11.5 mph - 0.01 in Snow Light Snow
3:21 PM 8.6 °F -7.0 °F 3.2 °F 79% 29.95 in 2.0 mi WNW 12.7 mph - 0.01 in Snow Light Snow
3:35 PM 8.6 °F -6.3 °F 3.2 °F 79% 29.96 in 1.5 mi WNW 11.5 mph - 0.01 in Snow Light Snow
3:53 PM 8.1 °F -7.0 °F 3.0 °F 80% 30.18 in 2.0 mi NW 11.5 mph - 0.01 in Snow Light Snow
4:03 PM 8.6 °F -6.3 °F 3.2 °F 79% 29.98 in 1.5 mi WNW 11.5 mph - 0.00 in Snow Light Snow
4:19 PM 6.8 °F -8.6 °F 1.4 °F 79% 29.99 in 3.0 mi WNW 11.5 mph - 0.00 in Snow Light Snow
4:35 PM 6.8 °F -8.6 °F 1.4 °F 79% 30.00 in 4.0 mi WNW 11.5 mph - 0.00 in   Haze
4:53 PM 6.1 °F -8.7 °F 1.0 °F 80% 30.22 in 8.0 mi West 10.4 mph - 0.00 in   Overcast
5:53 PM 5.0 °F -8.1 °F -0.9 °F 76% 30.25 in 10.0 mi WNW 8.1 mph - N/A   Overcast
6:53 PM -0.4 °F -12.0 °F -4.0 °F 85% 30.03 in 10.0 mi SSW 5.8 mph - N/A   Partly Cloudy
7:53 PM -5.1 °F -20.4 °F -9.0 °F 83% 30.28 in 10.0 mi SSW 8.1 mph - N/A   Clear
8:53 PM -5.1 °F -13.6 °F -9.9 °F 80% 30.28 in 10.0 mi South 3.5 mph - N/A   Clear
9:53 PM -7.1 °F -18.1 °F -9.9 °F 87% 30.28 in 10.0 mi SE 4.6 mph - N/A   Clear
10:53 PM -11.0 °F - -14.1 °F 86% 30.31 in 10.0 mi Calm Calm - N/A   Clear
11:53 PM -11.2 °F - -14.8 °F 84% 30.02 in 10.0 mi Calm Calm - N/A   Clear